M I D A S
Marine Information and Data Acquisition System
Tripno 2098 of the Zeeleeuw from 2011-05-09 07:32:46 to 2011-05-09 14:36:38
Back to CruiseResearch ActivitiesStationsMapUnderway DataData graphs

EquipmentUnitsComments
TimeDGPSUTC
LatitudeDGPSDM.mWGS84
LongitudeDGPSDM.mWGS84
SpeedMeteo Stationm/sRelative wind speed
DirectionMeteo StationdegRelative wind direction
TemperatureMeteo Stationdeg CelciusAir temperature
PressureMeteo StationPaAtmospheric pressure
HumidityMeteo Station%Relative humidity
Missing or incorrect values are displayed as -999
Metereological data collected by the RV Zeeleeuw from 2011-05-09 07:16:12 to 2011-05-09 14:47:01
                                                                                    Next 1000 lines
Time Latitude Longitude Speed Direction Temperature Pressure Humidity
2011-05-09 07:16:23 51°13.661 2°55.961 -999 78 14.4 102240 41
2011-05-09 07:16:28 51°13.662 2°55.961 -999 35 14.4 102240 41
2011-05-09 07:16:33 51°13.662 2°55.96 -999 78 14.3 102240 41
2011-05-09 07:16:38 51°13.662 2°55.96 -999 35 14.3 102240 41
2011-05-09 07:16:42 51°13.661 2°55.96 -999 78 14.4 102240 41
2011-05-09 07:16:48 51°13.661 2°55.96 -999 35 14.4 102240 41
2011-05-09 07:16:52 51°13.661 2°55.96 -999 78 14.4 102240 41
2011-05-09 07:16:57 51°13.661 2°55.959 -999 35 14.4 102240 41
2011-05-09 07:17:02 51°13.661 2°55.959 -999 23 14.4 102240 41
2011-05-09 07:17:08 51°13.661 2°55.959 -999 35 14.4 102240 41
2011-05-09 07:17:12 51°13.661 2°55.959 -999 78 14.4 102240 41
2011-05-09 07:17:18 51°13.661 2°55.959 -999 35 14.4 102240 41
2011-05-09 07:17:23 51°13.661 2°55.959 -999 78 14.3 102240 40
2011-05-09 07:17:28 51°13.661 2°55.959 -999 35 14.3 102240 40
2011-05-09 07:17:32 51°13.661 2°55.96 -999 78 14.3 102240 40
2011-05-09 07:17:38 51°13.661 2°55.96 -999 35 14.3 102240 40
2011-05-09 07:17:43 51°13.661 2°55.96 -999 78 14.3 102240 39
2011-05-09 07:17:48 51°13.661 2°55.96 -999 35 14.3 102240 39
2011-05-09 07:17:52 51°13.661 2°55.96 -999 78 14.3 102240 41
2011-05-09 07:17:57 51°13.661 2°55.96 -999 35 14.3 102240 41
2011-05-09 07:18:03 51°13.661 2°55.961 -999 24 14.3 102240 41
2011-05-09 07:18:08 51°13.661 2°55.961 -999 35 14.3 102240 41
2011-05-09 07:18:12 51°13.661 2°55.961 -999 78 14.3 102240 41
2011-05-09 07:18:17 51°13.66 2°55.961 -999 35 14.3 102240 41
2011-05-09 07:18:22 51°13.66 2°55.961 -999 78 14.3 102240 40
2011-05-09 07:18:28 51°13.66 2°55.961 -999 35 14.3 102240 40
2011-05-09 07:18:32 51°13.66 2°55.96 -999 78 14.3 102240 41
2011-05-09 07:18:37 51°13.66 2°55.96 -999 35 14.3 102240 41
2011-05-09 07:18:42 51°13.66 2°55.96 -999 78 14.3 102240 40
2011-05-09 07:18:48 51°13.659 2°55.96 -999 35 14.3 102240 40
2011-05-09 07:18:52 51°13.66 2°55.96 -999 78 14.3 102240 40
2011-05-09 07:18:57 51°13.66 2°55.96 -999 35 14.3 102240 40
2011-05-09 07:19:02 51°13.66 2°55.959 -999 24 14.2 102240 40
2011-05-09 07:19:07 51°13.66 2°55.958 -999 35 14.2 102240 40
2011-05-09 07:19:12 51°13.661 2°55.955 -999 78 14.2 102240 40
2011-05-09 07:19:17 51°13.662 2°55.952 -999 35 14.2 102240 40
2011-05-09 07:19:22 51°13.663 2°55.949 -999 78 14.2 102250 40
2011-05-09 07:19:29 51°13.665 2°55.942 -999 35 14.2 102250 40
2011-05-09 07:19:34 51°13.666 2°55.937 -999 78 14.1 102240 40
2011-05-09 07:19:40 51°13.668 2°55.93 -999 35 14.1 102240 40
2011-05-09 07:19:45 51°13.67 2°55.924 -999 78 14.2 102240 41
2011-05-09 07:19:51 51°13.671 2°55.916 -999 35 14.2 102240 41
2011-05-09 07:19:56 51°13.673 2°55.909 -999 78 14.1 102250 41
2011-05-09 07:20:01 51°13.675 2°55.902 -999 35 14.1 102250 41
2011-05-09 07:20:07 51°13.677 2°55.893 -999 24 14.1 102250 41
2011-05-09 07:20:11 51°13.678 2°55.886 -999 35 14.1 102250 41
2011-05-09 07:20:16 51°13.68 2°55.878 -999 78 14.1 102250 40
2011-05-09 07:20:21 51°13.681 2°55.87 -999 35 14.1 102250 40
2011-05-09 07:20:27 51°13.683 2°55.86 -999 83 14.1 102250 39
2011-05-09 07:20:32 51°13.685 2°55.851 4.1 40 14.1 102250 39
2011-05-09 07:20:37 51°13.686 2°55.843 4.1 75 14.1 102250 41
2011-05-09 07:20:41 51°13.687 2°55.836 4.7 34 14.1 102250 41
2011-05-09 07:20:46 51°13.688 2°55.828 4.9 83 14 102250 41
2011-05-09 07:20:52 51°13.689 2°55.818 2.6 33 14 102250 41
2011-05-09 07:20:57 51°13.69 2°55.809 0.2 78 14 102250 40
2011-05-09 07:21:01 51°13.691 2°55.803 0.1 36 14 102250 40
2011-05-09 07:21:06 51°13.692 2°55.795 0.1 24 14 102260 40
2011-05-09 07:21:11 51°13.693 2°55.787 -999 36 14 102260 40
2011-05-09 07:21:16 51°13.693 2°55.779 -999 78 14 102250 41
2011-05-09 07:21:21 51°13.693 2°55.772 -999 35 14 102250 41
2011-05-09 07:21:26 51°13.693 2°55.765 -999 78 14 102250 41
2011-05-09 07:21:31 51°13.693 2°55.759 -999 35 14 102250 41
2011-05-09 07:21:36 51°13.693 2°55.753 -999 78 14 102250 41
2011-05-09 07:21:41 51°13.693 2°55.748 -999 35 14 102250 41
2011-05-09 07:21:46 51°13.694 2°55.745 -999 282 14 102250 41
2011-05-09 07:21:51 51°13.694 2°55.744 -999 262 14 102250 41
2011-05-09 07:21:56 51°13.695 2°55.744 -999 282 14 102250 41
2011-05-09 07:22:01 51°13.696 2°55.744 -999 251 14 102250 41
2011-05-09 07:22:05 51°13.697 2°55.744 -999 250 14 102260 41
2011-05-09 07:22:10 51°13.699 2°55.745 -999 244 14 102260 41
2011-05-09 07:22:15 51°13.701 2°55.746 -999 282 14 102250 41
2011-05-09 07:22:20 51°13.703 2°55.746 -999 243 14 102250 41
2011-05-09 07:22:25 51°13.705 2°55.746 -999 282 14 102250 41
2011-05-09 07:22:31 51°13.709 2°55.747 -999 235 14 102250 41
2011-05-09 07:22:35 51°13.711 2°55.746 -999 282 14 102250 41
2011-05-09 07:22:41 51°13.715 2°55.746 -999 35 14 102250 41
2011-05-09 07:22:46 51°13.719 2°55.744 -999 282 14 102250 41
2011-05-09 07:22:50 51°13.722 2°55.743 -999 320 14 102250 41
2011-05-09 07:22:55 51°13.726 2°55.74 -999 282 14 102250 41
2011-05-09 07:23:00 51°13.731 2°55.736 -999 326 14 102250 41
2011-05-09 07:23:05 51°13.736 2°55.731 -999 328 14 102250 39
2011-05-09 07:23:10 51°13.741 2°55.725 -999 324 14 102250 39
2011-05-09 07:23:14 51°13.746 2°55.721 -999 282 14.1 102250 41
2011-05-09 07:23:19 51°13.752 2°55.714 -999 320 14.1 102250 41
2011-05-09 07:23:24 51°13.759 2°55.707 -999 282 14 102250 41
2011-05-09 07:23:29 51°13.766 2°55.699 -999 325 14 102250 41
2011-05-09 07:23:34 51°13.774 2°55.691 -999 282 14.1 102250 41
2011-05-09 07:23:39 51°13.782 2°55.683 -999 326 14.1 102250 41
2011-05-09 07:23:43 51°13.789 2°55.676 -999 282 14 102250 40
2011-05-09 07:23:48 51°13.799 2°55.667 -999 327 14 102250 40
2011-05-09 07:23:54 51°13.811 2°55.656 3.5 285 14 102250 40
2011-05-09 07:23:58 51°13.819 2°55.65 5 329 14 102250 40
2011-05-09 07:24:03 51°13.829 2°55.641 6.6 327 14 102250 41
2011-05-09 07:24:08 51°13.84 2°55.633 4.3 328 14 102250 41
2011-05-09 07:24:13 51°13.851 2°55.624 4.3 280 14.1 102250 41
2011-05-09 07:24:18 51°13.862 2°55.615 6.5 330 14.1 102250 41
2011-05-09 07:24:23 51°13.874 2°55.607 5.4 278 14.1 102250 41
2011-05-09 07:24:28 51°13.885 2°55.598 6.7 330 14.1 102250 41
2011-05-09 07:24:33 51°13.896 2°55.589 5.4 284 14.1 102260 40
2011-05-09 07:24:38 51°13.908 2°55.58 2.9 330 14.1 102260 40
2011-05-09 07:24:42 51°13.918 2°55.572 5.2 278 14.1 102260 40
2011-05-09 07:24:48 51°13.932 2°55.562 2.9 328 14.1 102260 40
2011-05-09 07:24:53 51°13.944 2°55.554 6.1 286 14.1 102250 41
2011-05-09 07:24:58 51°13.956 2°55.545 5.6 321 14.1 102250 41
2011-05-09 07:25:02 51°13.966 2°55.538 4.4 322 14.1 102250 41
2011-05-09 07:25:08 51°13.98 2°55.527 5.3 326 14.1 102250 41
2011-05-09 07:25:13 51°13.992 2°55.518 5.6 279 14.1 102250 40
2011-05-09 07:25:18 51°14.004 2°55.509 5.2 329 14.1 102250 40
2011-05-09 07:25:22 51°14.013 2°55.501 6.4 281 14.1 102250 41
2011-05-09 07:25:28 51°14.028 2°55.49 6.5 328 14.1 102250 41
2011-05-09 07:25:33 51°14.04 2°55.481 5.6 280 14.1 102260 41
2011-05-09 07:25:38 51°14.052 2°55.472 6.9 326 14.1 102260 41
2011-05-09 07:25:42 51°14.061 2°55.465 6.1 285 14.1 102260 39
2011-05-09 07:25:47 51°14.073 2°55.456 6.3 325 14.1 102260 39
2011-05-09 07:25:52 51°14.085 2°55.447 5.6 284 14.1 102260 41
2011-05-09 07:25:57 51°14.097 2°55.438 6.2 325 14.1 102260 41
2011-05-09 07:26:02 51°14.109 2°55.429 6.7 323 14.1 102260 41
2011-05-09 07:26:07 51°14.121 2°55.42 6.4 324 14.1 102260 41
2011-05-09 07:26:12 51°14.134 2°55.412 6.3 285 14.1 102260 41
2011-05-09 07:26:19 51°14.151 2°55.4 6.7 323 14.1 102260 41
2011-05-09 07:26:23 51°14.16 2°55.392 5.6 283 14.1 102260 40
2011-05-09 07:26:28 51°14.172 2°55.382 6.8 323 14.1 102260 40
2011-05-09 07:26:32 51°14.182 2°55.375 6.5 281 14.1 102260 40
2011-05-09 07:26:38 51°14.196 2°55.362 5.5 323 14.1 102260 40
2011-05-09 07:26:43 51°14.208 2°55.352 5.9 278 14.1 102260 41
2011-05-09 07:26:48 51°14.219 2°55.34 5.4 322 14.1 102260 41
2011-05-09 07:26:53 51°14.23 2°55.329 6.7 285 14.1 102260 41
2011-05-09 07:26:58 51°14.242 2°55.317 6.1 324 14.1 102260 41
2011-05-09 07:27:03 51°14.253 2°55.306 5.7 323 14.1 102260 40
2011-05-09 07:27:08 51°14.264 2°55.294 5.7 323 14.1 102260 40
2011-05-09 07:27:12 51°14.274 2°55.284 5.7 279 14.1 102260 41
2011-05-09 07:27:18 51°14.287 2°55.27 5.5 324 14.1 102260 41
2011-05-09 07:27:22 51°14.297 2°55.26 6.1 286 14.1 102260 40
2011-05-09 07:27:27 51°14.309 2°55.249 5.5 322 14.1 102260 40
2011-05-09 07:27:31 51°14.319 2°55.239 5.7 286 14.1 102260 41
2011-05-09 07:27:38 51°14.336 2°55.222 5.6 323 14.1 102260 41
2011-05-09 07:27:42 51°14.345 2°55.213 6 285 14.1 102260 41
2011-05-09 07:27:47 51°14.358 2°55.2 6.3 324 14.1 102260 41
2011-05-09 07:27:53 51°14.373 2°55.186 6.3 285 14 102260 41
2011-05-09 07:27:58 51°14.385 2°55.175 6.1 324 14 102260 41
2011-05-09 07:28:03 51°14.398 2°55.163 6.5 323 14 102260 41
2011-05-09 07:28:07 51°14.408 2°55.153 5.9 323 14 102260 41
2011-05-09 07:28:12 51°14.421 2°55.142 5.7 279 14 102260 41
2011-05-09 07:28:18 51°14.436 2°55.128 5.9 326 14 102260 41
2011-05-09 07:28:23 51°14.449 2°55.116 5.8 285 14 102260 40
2011-05-09 07:28:27 51°14.459 2°55.107 6.5 324 14 102260 40
2011-05-09 07:28:32 51°14.472 2°55.095 6.4 286 14 102260 40
2011-05-09 07:28:39 51°14.49 2°55.078 5.6 323 14 102260 40
2011-05-09 07:28:43 51°14.5 2°55.068 6.5 279 14 102260 41
2011-05-09 07:28:48 51°14.514 2°55.056 6.9 324 14 102260 41
2011-05-09 07:28:52 51°14.524 2°55.047 6.9 287 14 102260 41
2011-05-09 07:28:57 51°14.537 2°55.034 7.2 324 14 102260 41
2011-05-09 07:29:03 51°14.553 2°55.018 6.4 325 14 102260 41
2011-05-09 07:29:08 51°14.565 2°55.003 7.3 326 14 102260 41
2011-05-09 07:29:12 51°14.575 2°54.99 6.8 279 14 102260 41
2011-05-09 07:29:18 51°14.588 2°54.968 6.4 326 14 102260 41
2011-05-09 07:29:23 51°14.598 2°54.949 7.2 284 14 102260 41
2011-05-09 07:29:28 51°14.608 2°54.929 7.2 327 14 102260 41
2011-05-09 07:29:32 51°14.615 2°54.912 6.3 282 14 102260 41
2011-05-09 07:29:38 51°14.625 2°54.885 0.2 328 14 102260 41
2011-05-09 07:29:42 51°14.631 2°54.867 0.1 282 14 102260 41
2011-05-09 07:29:48 51°14.639 2°54.839 0.1 329 14 102260 41
2011-05-09 07:29:52 51°14.643 2°54.819 -999 282 13.9 102260 41
2011-05-09 07:29:58 51°14.648 2°54.789 -999 330 13.9 102260 41
2011-05-09 07:30:03 51°14.65 2°54.762 -999 331 13.9 102260 41
2011-05-09 07:30:08 51°14.651 2°54.736 -999 332 13.9 102260 41
2011-05-09 07:30:12 51°14.65 2°54.715 -999 282 13.9 102260 41
2011-05-09 07:30:18 51°14.648 2°54.683 -999 333 13.9 102260 41
2011-05-09 07:30:23 51°14.644 2°54.657 -999 282 13.9 102260 41
2011-05-09 07:30:28 51°14.639 2°54.632 -999 335 13.9 102260 41
2011-05-09 07:30:32 51°14.634 2°54.612 -999 282 13.9 102260 41
2011-05-09 07:30:37 51°14.626 2°54.588 -999 335 13.9 102260 41
2011-05-09 07:30:42 51°14.618 2°54.565 -999 282 13.8 102270 41
2011-05-09 07:30:48 51°14.606 2°54.538 -999 336 13.8 102270 41
2011-05-09 07:30:52 51°14.598 2°54.52 -999 282 13.9 102260 41
2011-05-09 07:30:57 51°14.588 2°54.498 -999 336 13.9 102260 41
2011-05-09 07:31:02 51°14.577 2°54.475 -999 338 13.9 102270 39
2011-05-09 07:31:08 51°14.564 2°54.449 -999 337 13.9 102270 39
2011-05-09 07:31:12 51°14.556 2°54.431 -999 282 13.8 102270 41
2011-05-09 07:31:17 51°14.545 2°54.409 -999 336 13.8 102270 41
2011-05-09 07:31:23 51°14.531 2°54.382 -999 282 13.8 102270 41
2011-05-09 07:31:27 51°14.523 2°54.364 -999 335 13.8 102270 41
2011-05-09 07:31:33 51°14.509 2°54.337 -999 282 13.8 102270 41
2011-05-09 07:31:38 51°14.498 2°54.314 -999 334 13.8 102270 41
2011-05-09 07:31:43 51°14.487 2°54.291 -999 335 13.8 102270 41
2011-05-09 07:31:48 51°14.477 2°54.267 -999 335 13.8 102270 41
2011-05-09 07:31:53 51°14.466 2°54.243 -999 282 13.8 102270 41
2011-05-09 07:31:57 51°14.458 2°54.224 -999 334 13.8 102270 41
2011-05-09 07:32:03 51°14.446 2°54.195 -999 335 13.8 102270 41
2011-05-09 07:32:08 51°14.436 2°54.17 -999 335 13.8 102270 41
2011-05-09 07:32:13 51°14.427 2°54.145 -999 282 13.8 102270 41
2011-05-09 07:32:17 51°14.419 2°54.126 -999 333 13.8 102270 41
2011-05-09 07:32:22 51°14.411 2°54.101 -999 282 13.8 102270 41
2011-05-09 07:32:28 51°14.4 2°54.07 -999 334 13.8 102270 41
2011-05-09 07:32:33 51°14.392 2°54.045 -999 282 13.8 102270 41
2011-05-09 07:32:37 51°14.385 2°54.025 -999 333 13.8 102270 41
2011-05-09 07:32:42 51°14.376 2°53.999 -999 282 13.8 102270 41
2011-05-09 07:32:47 51°14.368 2°53.974 -999 334 13.8 102270 41
2011-05-09 07:32:53 51°14.358 2°53.943 -999 282 13.8 102270 41
2011-05-09 07:32:57 51°14.352 2°53.923 -999 333 13.8 102270 41
2011-05-09 07:33:02 51°14.343 2°53.898 -999 334 13.8 102270 41
2011-05-09 07:33:08 51°14.333 2°53.867 -999 333 13.8 102270 41
2011-05-09 07:33:13 51°14.325 2°53.842 -999 282 13.8 102270 41
2011-05-09 07:33:17 51°14.318 2°53.822 -999 335 13.8 102270 41
2011-05-09 07:33:22 51°14.309 2°53.796 -999 282 13.8 102270 41
2011-05-09 07:33:27 51°14.3 2°53.771 -999 333 13.8 102270 41
2011-05-09 07:33:33 51°14.289 2°53.741 -999 282 13.8 102280 41
2011-05-09 07:33:37 51°14.282 2°53.721 -999 333 13.8 102280 41
2011-05-09 07:33:42 51°14.273 2°53.697 -999 282 13.8 102280 40
2011-05-09 07:33:48 51°14.261 2°53.668 -999 335 13.8 102280 40
2011-05-09 07:33:53 51°14.25 2°53.644 -999 282 13.8 102270 41
2011-05-09 07:33:58 51°14.24 2°53.62 -999 336 13.8 102270 41
2011-05-09 07:34:03 51°14.23 2°53.597 -999 335 13.8 102270 41
2011-05-09 07:34:08 51°14.219 2°53.573 -999 334 13.8 102270 41
2011-05-09 07:34:13 51°14.209 2°53.55 -999 282 13.8 102270 41
2011-05-09 07:34:18 51°14.198 2°53.526 -999 334 13.8 102270 41
2011-05-09 07:34:22 51°14.19 2°53.507 -999 282 13.8 102270 41
2011-05-09 07:34:28 51°14.177 2°53.479 -999 336 13.8 102270 41
2011-05-09 07:34:33 51°14.167 2°53.455 -999 282 13.8 102270 41
2011-05-09 07:34:38 51°14.156 2°53.432 -999 335 13.8 102270 41
2011-05-09 07:34:42 51°14.148 2°53.413 -999 282 13.8 102270 41
2011-05-09 07:34:47 51°14.138 2°53.389 -999 334 13.8 102270 41
2011-05-09 07:34:53 51°14.126 2°53.36 -999 282 13.8 102270 41
2011-05-09 07:34:58 51°14.116 2°53.336 -999 336 13.8 102270 41
2011-05-09 07:35:02 51°14.109 2°53.316 -999 334 13.8 102270 41
2011-05-09 07:35:08 51°14.097 2°53.286 -999 334 13.8 102270 41
2011-05-09 07:35:13 51°14.089 2°53.261 -999 282 13.8 102270 41
2011-05-09 07:35:18 51°14.08 2°53.235 -999 335 13.8 102270 41
2011-05-09 07:35:22 51°14.073 2°53.215 -999 282 13.8 102270 41
2011-05-09 07:35:28 51°14.063 2°53.184 -999 333 13.8 102270 41
2011-05-09 07:35:33 51°14.054 2°53.159 -999 282 13.8 102270 41
2011-05-09 07:35:38 51°14.046 2°53.133 -999 334 13.8 102270 41
2011-05-09 07:35:42 51°14.039 2°53.112 -999 282 13.8 102270 41
2011-05-09 07:35:48 51°14.029 2°53.081 -999 335 13.8 102270 41
2011-05-09 07:35:52 51°14.021 2°53.061 -999 282 13.8 102260 41
2011-05-09 07:35:57 51°14.013 2°53.035 -999 332 13.8 102260 41
2011-05-09 07:36:02 51°14.004 2°53.01 -999 334 13.8 102260 41
2011-05-09 07:36:07 51°13.996 2°52.984 -999 334 13.8 102260 41
2011-05-09 07:36:13 51°13.985 2°52.953 -999 282 13.8 102270 41
2011-05-09 07:36:18 51°13.977 2°52.928 -999 334 13.8 102270 41
2011-05-09 07:36:23 51°13.968 2°52.902 -999 282 13.8 102270 40
2011-05-09 07:36:27 51°13.961 2°52.882 -999 333 13.8 102270 40
2011-05-09 07:36:33 51°13.95 2°52.851 -999 282 13.8 102270 41
2011-05-09 07:36:38 51°13.94 2°52.826 -999 335 13.8 102270 41
2011-05-09 07:36:43 51°13.931 2°52.801 -999 282 13.8 102270 41
2011-05-09 07:36:48 51°13.921 2°52.777 -999 335 13.8 102270 41
2011-05-09 07:36:53 51°13.911 2°52.752 -999 282 13.8 102270 41
2011-05-09 07:36:58 51°13.9 2°52.729 -999 336 13.8 102270 41
2011-05-09 07:37:03 51°13.89 2°52.704 -999 337 13.8 102270 41
2011-05-09 07:37:07 51°13.882 2°52.686 -999 335 13.8 102270 41
2011-05-09 07:37:13 51°13.869 2°52.657 -999 336 13.8 102270 41
2011-05-09 07:37:18 51°13.859 2°52.633 -999 335 13.8 102270 41
2011-05-09 07:37:23 51°13.848 2°52.609 -999 282 13.8 102270 41
2011-05-09 07:37:27 51°13.84 2°52.59 -999 335 13.8 102270 41
2011-05-09 07:37:33 51°13.828 2°52.561 -999 282 13.8 102260 41
2011-05-09 07:37:38 51°13.817 2°52.537 -999 335 13.8 102260 41
2011-05-09 07:37:43 51°13.808 2°52.512 -999 282 13.8 102270 41
2011-05-09 07:37:47 51°13.8 2°52.493 -999 336 13.8 102270 41
2011-05-09 07:37:53 51°13.788 2°52.463 -999 282 13.8 102260 41
2011-05-09 07:37:58 51°13.779 2°52.438 -999 333 13.8 102260 41
2011-05-09 07:38:03 51°13.77 2°52.412 -999 334 13.8 102270 41
2011-05-09 07:38:07 51°13.763 2°52.392 -999 336 13.8 102270 41
2011-05-09 07:38:13 51°13.753 2°52.362 -999 282 13.8 102270 41
2011-05-09 07:38:18 51°13.744 2°52.336 -999 334 13.8 102270 41
2011-05-09 07:38:23 51°13.736 2°52.311 -999 282 13.8 102270 41
2011-05-09 07:38:28 51°13.727 2°52.285 -999 335 13.8 102270 41
2011-05-09 07:38:33 51°13.718 2°52.26 -999 282 13.8 102270 41
2011-05-09 07:38:38 51°13.709 2°52.234 -999 335 13.8 102270 41
2011-05-09 07:38:43 51°13.7 2°52.209 -999 282 13.8 102270 41
2011-05-09 07:38:48 51°13.691 2°52.184 -999 335 13.8 102270 41
2011-05-09 07:38:53 51°13.682 2°52.159 -999 282 13.8 102260 41
2011-05-09 07:38:58 51°13.672 2°52.135 -999 335 13.8 102260 41
2011-05-09 07:39:03 51°13.662 2°52.11 -999 335 13.8 102270 40
2011-05-09 07:39:08 51°13.651 2°52.086 -999 336 13.8 102270 40
2011-05-09 07:39:12 51°13.643 2°52.067 -999 282 13.8 102270 41
2011-05-09 07:39:18 51°13.631 2°52.039 -999 335 13.8 102270 41
2011-05-09 07:39:22 51°13.622 2°52.02 -999 281 13.8 102270 41
2011-05-09 07:39:28 51°13.61 2°51.991 -999 334 13.8 102270 41
2011-05-09 07:39:32 51°13.601 2°51.972 -999 282 13.8 102270 41
2011-05-09 07:39:38 51°13.589 2°51.943 -999 334 13.8 102270 41
2011-05-09 07:39:43 51°13.578 2°51.919 -999 282 13.8 102270 41
2011-05-09 07:39:48 51°13.568 2°51.895 -999 334 13.8 102270 41
2011-05-09 07:39:52 51°13.56 2°51.876 -999 282 13.9 102270 41
2011-05-09 07:39:58 51°13.55 2°51.846 -999 333 13.9 102270 41
2011-05-09 07:40:03 51°13.541 2°51.821 -999 334 13.8 102270 41
2011-05-09 07:40:08 51°13.533 2°51.795 -999 334 13.8 102270 41
2011-05-09 07:40:12 51°13.526 2°51.774 -999 282 13.8 102260 41
2011-05-09 07:40:18 51°13.517 2°51.744 -999 334 13.8 102260 41
2011-05-09 07:40:23 51°13.509 2°51.718 -999 282 13.8 102270 41
2011-05-09 07:40:28 51°13.501 2°51.692 -999 333 13.8 102270 41
2011-05-09 07:40:32 51°13.495 2°51.671 -999 282 13.8 102270 41
2011-05-09 07:40:37 51°13.487 2°51.645 -999 333 13.8 102270 41
2011-05-09 07:40:43 51°13.478 2°51.614 -999 334 13.8 102270 41
2011-05-09 07:40:48 51°13.47 2°51.588 -999 334 13.8 102270 41
2011-05-09 07:40:52 51°13.464 2°51.568 -999 282 13.8 102260 41
2011-05-09 07:40:58 51°13.455 2°51.536 -999 333 13.8 102260 41
2011-05-09 07:41:03 51°13.447 2°51.51 -999 334 13.8 102270 41
2011-05-09 07:41:08 51°13.439 2°51.485 -999 334 13.8 102270 41
2011-05-09 07:41:12 51°13.434 2°51.463 -999 282 13.8 102270 41
2011-05-09 07:41:17 51°13.426 2°51.438 -999 334 13.8 102270 41
2011-05-09 07:41:23 51°13.416 2°51.407 -999 282 13.8 102270 41
2011-05-09 07:41:28 51°13.409 2°51.381 -999 335 13.8 102270 41
2011-05-09 07:41:32 51°13.403 2°51.36 -999 282 13.8 102270 41
2011-05-09 07:41:38 51°13.393 2°51.329 -999 333 13.8 102270 41
2011-05-09 07:41:43 51°13.385 2°51.303 -999 282 13.8 102270 39
2011-05-09 07:41:48 51°13.377 2°51.277 -999 333 13.8 102270 39
2011-05-09 07:41:52 51°13.371 2°51.257 -999 281 13.8 102270 41
2011-05-09 07:41:58 51°13.361 2°51.226 -999 334 13.8 102270 41
2011-05-09 07:42:03 51°13.351 2°51.201 -999 334 13.8 102270 41
2011-05-09 07:42:08 51°13.343 2°51.176 -999 334 13.8 102270 41
2011-05-09 07:42:12 51°13.335 2°51.157 -999 281 13.8 102270 41
2011-05-09 07:42:17 51°13.326 2°51.132 -999 333 13.8 102270 41
2011-05-09 07:42:23 51°13.314 2°51.103 -999 282 13.8 102270 41
2011-05-09 07:42:28 51°13.305 2°51.079 -999 335 13.8 102270 41
2011-05-09 07:42:32 51°13.297 2°51.06 -999 282 13.8 102260 41
2011-05-09 07:42:37 51°13.288 2°51.035 -999 335 13.8 102260 41
2011-05-09 07:42:43 51°13.276 2°51.006 -999 282 13.8 102270 41
2011-05-09 07:42:48 51°13.267 2°50.981 -999 334 13.8 102270 41
2011-05-09 07:42:52 51°13.26 2°50.961 -999 282 13.8 102270 41
2011-05-09 07:42:57 51°13.252 2°50.936 -999 333 13.8 102270 41
2011-05-09 07:43:03 51°13.242 2°50.905 -999 334 13.8 102270 41
2011-05-09 07:43:08 51°13.234 2°50.879 -999 334 13.8 102270 41
2011-05-09 07:43:12 51°13.228 2°50.859 -999 282 13.8 102270 41
2011-05-09 07:43:18 51°13.219 2°50.827 -999 332 13.8 102270 41
2011-05-09 07:43:23 51°13.211 2°50.801 -999 281 13.8 102270 41
2011-05-09 07:43:28 51°13.203 2°50.775 -999 334 13.8 102270 41
2011-05-09 07:43:32 51°13.197 2°50.754 -999 282 13.8 102270 41
2011-05-09 07:43:37 51°13.189 2°50.728 -999 333 13.8 102270 41
2011-05-09 07:43:43 51°13.18 2°50.697 -999 282 13.8 102270 41
2011-05-09 07:43:48 51°13.172 2°50.67 -999 333 13.8 102270 41
2011-05-09 07:43:52 51°13.166 2°50.65 -999 282 13.8 102270 41
2011-05-09 07:43:58 51°13.157 2°50.618 -999 335 13.8 102270 41
2011-05-09 07:44:03 51°13.149 2°50.592 -999 334 13.8 102270 41
2011-05-09 07:44:08 51°13.14 2°50.566 -999 335 13.8 102270 41
2011-05-09 07:44:12 51°13.134 2°50.546 -999 282 13.8 102270 41
2011-05-09 07:44:18 51°13.124 2°50.515 -999 334 13.8 102270 41
2011-05-09 07:44:23 51°13.115 2°50.49 -999 281 13.8 102270 39
2011-05-09 07:44:28 51°13.106 2°50.464 -999 333 13.8 102270 39
2011-05-09 07:44:32 51°13.099 2°50.444 -999 282 13.8 102270 41
2011-05-09 07:44:37 51°13.09 2°50.419 -999 334 13.8 102270 41
2011-05-09 07:44:43 51°13.078 2°50.39 -999 282 13.8 102270 41
2011-05-09 07:44:48 51°13.069 2°50.364 -999 334 13.8 102270 41
2011-05-09 07:44:52 51°13.061 2°50.345 -999 282 13.8 102270 41
2011-05-09 07:44:57 51°13.052 2°50.32 -999 334 13.8 102270 41
2011-05-09 07:45:03 51°13.041 2°50.29 -999 334 13.8 102270 41
2011-05-09 07:45:08 51°13.032 2°50.265 -999 333 13.8 102270 41
2011-05-09 07:45:12 51°13.025 2°50.245 -999 282 13.8 102270 41
2011-05-09 07:45:17 51°13.016 2°50.219 -999 334 13.8 102270 41
2011-05-09 07:45:23 51°13.006 2°50.188 -999 282 13.8 102270 41
2011-05-09 07:45:28 51°12.997 2°50.163 -999 333 13.8 102270 41
2011-05-09 07:45:32 51°12.991 2°50.142 -999 281 13.8 102270 41
2011-05-09 07:45:38 51°12.981 2°50.111 -999 334 13.8 102270 41
2011-05-09 07:45:43 51°12.973 2°50.085 -999 282 13.9 102270 41
2011-05-09 07:45:48 51°12.965 2°50.059 -999 332 13.9 102270 41
2011-05-09 07:45:52 51°12.958 2°50.038 -999 281 13.8 102270 41
2011-05-09 07:45:57 51°12.951 2°50.012 -999 333 13.8 102270 41
2011-05-09 07:46:03 51°12.941 2°49.98 -999 332 13.8 102270 41
2011-05-09 07:46:08 51°12.933 2°49.954 -999 333 13.8 102270 41
2011-05-09 07:46:12 51°12.927 2°49.933 -999 282 13.9 102280 41
2011-05-09 07:46:18 51°12.917 2°49.902 -999 333 13.9 102280 41
2011-05-09 07:46:23 51°12.91 2°49.875 -999 282 13.8 102280 41
2011-05-09 07:46:28 51°12.902 2°49.849 -999 333 13.8 102280 41
2011-05-09 07:46:32 51°12.895 2°49.828 -999 282 13.9 102270 41
2011-05-09 07:46:38 51°12.886 2°49.796 -999 333 13.9 102270 41
2011-05-09 07:46:43 51°12.878 2°49.77 -999 282 13.9 102280 41
2011-05-09 07:46:48 51°12.87 2°49.744 -999 333 13.9 102280 41
2011-05-09 07:46:52 51°12.864 2°49.723 -999 282 13.8 102270 41
2011-05-09 07:46:57 51°12.856 2°49.697 -999 333 13.8 102270 41
2011-05-09 07:47:03 51°12.846 2°49.666 -999 333 13.8 102270 40
2011-05-09 07:47:08 51°12.837 2°49.64 -999 333 13.8 102270 40
2011-05-09 07:47:12 51°12.83 2°49.62 -999 281 13.8 102270 41
2011-05-09 07:47:18 51°12.819 2°49.589 -999 333 13.8 102270 41
2011-05-09 07:47:23 51°12.81 2°49.564 -999 282 13.8 102280 41
2011-05-09 07:47:28 51°12.801 2°49.539 -999 334 13.8 102280 41
2011-05-09 07:47:32 51°12.794 2°49.519 -999 282 13.8 102280 41
2011-05-09 07:47:37 51°12.785 2°49.494 -999 333 13.8 102280 41
2011-05-09 07:47:42 51°12.776 2°49.469 -999 334 13.9 102270 41
2011-05-09 07:47:48 51°12.765 2°49.439 -999 334 13.9 102270 41
2011-05-09 07:47:52 51°12.758 2°49.418 -999 282 13.8 102270 41
2011-05-09 07:47:57 51°12.749 2°49.393 -999 333 13.8 102270 41
2011-05-09 07:48:03 51°12.739 2°49.362 -999 333 13.9 102270 41
2011-05-09 07:48:08 51°12.731 2°49.336 -999 334 13.9 102270 41
2011-05-09 07:48:12 51°12.723 2°49.316 -999 282 13.9 102280 41
2011-05-09 07:48:18 51°12.713 2°49.285 -999 333 13.9 102280 41
2011-05-09 07:48:23 51°12.705 2°49.259 -999 333 13.8 102270 41
2011-05-09 07:48:28 51°12.696 2°49.234 -999 333 13.8 102270 41
2011-05-09 07:48:32 51°12.69 2°49.213 -999 282 13.8 102270 41
2011-05-09 07:48:37 51°12.681 2°49.187 -999 334 13.8 102270 41
2011-05-09 07:48:43 51°12.671 2°49.156 -999 334 13.8 102270 41
2011-05-09 07:48:48 51°12.662 2°49.131 -999 333 13.8 102270 41
2011-05-09 07:48:52 51°12.655 2°49.11 -999 334 13.8 102270 41
2011-05-09 07:48:56 51°12.648 2°49.09 -999 334 13.8 102270 41
2011-05-09 07:49:03 51°12.636 2°49.054 -999 333 13.8 102280 41
2011-05-09 07:49:08 51°12.627 2°49.028 -999 334 13.8 102280 41
2011-05-09 07:49:12 51°12.62 2°49.008 -999 334 13.8 102280 41
2011-05-09 07:49:17 51°12.611 2°48.982 -999 333 13.8 102280 41
2011-05-09 07:49:23 51°12.6 2°48.951 -999 282 13.8 102280 41
2011-05-09 07:49:28 51°12.591 2°48.926 -999 333 13.8 102280 41
2011-05-09 07:49:32 51°12.584 2°48.905 -999 332 13.8 102270 41
2011-05-09 07:49:38 51°12.574 2°48.874 -999 332 13.8 102270 41
2011-05-09 07:49:42 51°12.567 2°48.854 -999 333 13.8 102270 40
2011-05-09 07:49:48 51°12.557 2°48.824 -999 333 13.8 102270 40
2011-05-09 07:49:52 51°12.55 2°48.803 -999 333 13.8 102270 41
2011-05-09 07:49:58 51°12.539 2°48.771 -999 333 13.8 102270 41
2011-05-09 07:50:02 51°12.532 2°48.751 -999 332 13.8 102270 41
2011-05-09 07:50:08 51°12.522 2°48.72 -999 333 13.8 102270 41
2011-05-09 07:50:12 51°12.516 2°48.699 -999 332 13.8 102270 41
2011-05-09 07:50:18 51°12.507 2°48.668 -999 332 13.8 102270 41
2011-05-09 07:50:23 51°12.498 2°48.641 -999 332 13.8 102270 41
2011-05-09 07:50:28 51°12.491 2°48.615 -999 333 13.8 102270 41
2011-05-09 07:50:32 51°12.484 2°48.594 -999 332 13.8 102270 41
2011-05-09 07:50:38 51°12.475 2°48.562 -999 332 13.8 102270 41
2011-05-09 07:50:42 51°12.469 2°48.541 -999 331 13.8 102280 41
2011-05-09 07:50:48 51°12.46 2°48.509 -999 333 13.8 102280 41
2011-05-09 07:50:52 51°12.453 2°48.488 -999 282 13.8 102270 41
2011-05-09 07:50:58 51°12.444 2°48.456 -999 333 13.8 102270 41
2011-05-09 07:51:02 51°12.437 2°48.435 -999 333 13.8 102270 41
2011-05-09 07:51:08 51°12.427 2°48.403 -999 333 13.8 102270 41
2011-05-09 07:51:12 51°12.421 2°48.382 -999 332 13.8 102270 41
2011-05-09 07:51:17 51°12.413 2°48.356 -999 332 13.8 102270 41
2011-05-09 07:51:23 51°12.404 2°48.324 -999 333 13.8 102270 41
2011-05-09 07:51:28 51°12.396 2°48.297 -999 333 13.8 102270 41
2011-05-09 07:51:32 51°12.39 2°48.276 -999 332 13.8 102270 41
2011-05-09 07:51:37 51°12.381 2°48.25 -999 332 13.8 102270 41
2011-05-09 07:51:43 51°12.372 2°48.219 -999 332 13.8 102270 41
2011-05-09 07:51:48 51°12.363 2°48.192 -999 333 13.8 102270 41
2011-05-09 07:51:52 51°12.356 2°48.172 -999 333 13.8 102280 41
2011-05-09 07:51:57 51°12.348 2°48.146 -999 332 13.8 102280 41
2011-05-09 07:52:02 51°12.338 2°48.121 -999 333 13.8 102270 41
2011-05-09 07:52:08 51°12.327 2°48.09 -999 334 13.8 102270 41
2011-05-09 07:52:12 51°12.32 2°48.07 -999 333 13.8 102270 41
2011-05-09 07:52:17 51°12.31 2°48.046 -999 333 13.8 102270 41
2011-05-09 07:52:23 51°12.3 2°48.015 -999 333 13.8 102270 40
2011-05-09 07:52:28 51°12.29 2°47.99 -999 333 13.8 102270 40
2011-05-09 07:52:32 51°12.283 2°47.97 -999 333 13.8 102280 41
2011-05-09 07:52:38 51°12.272 2°47.939 -999 334 13.8 102280 41
2011-05-09 07:52:43 51°12.263 2°47.913 -999 332 13.9 102280 41
2011-05-09 07:52:48 51°12.254 2°47.888 -999 332 13.9 102280 41
2011-05-09 07:52:52 51°12.247 2°47.867 -999 282 13.8 102270 41
2011-05-09 07:52:57 51°12.239 2°47.841 -999 332 13.8 102270 41
2011-05-09 07:53:03 51°12.228 2°47.81 -999 332 13.8 102280 41
2011-05-09 07:53:08 51°12.22 2°47.783 -999 332 13.8 102280 41
2011-05-09 07:53:12 51°12.213 2°47.763 -999 282 13.8 102270 41
2011-05-09 07:53:18 51°12.203 2°47.731 -999 332 13.8 102270 41
2011-05-09 07:53:23 51°12.195 2°47.705 -999 332 13.8 102270 41
2011-05-09 07:53:28 51°12.186 2°47.679 -999 332 13.8 102270 41
2011-05-09 07:53:32 51°12.18 2°47.657 -999 332 13.8 102270 41
2011-05-09 07:53:37 51°12.173 2°47.631 -999 332 13.8 102270 41
2011-05-09 07:53:43 51°12.164 2°47.598 -999 331 13.8 102280 41
2011-05-09 07:53:48 51°12.157 2°47.571 -999 331 13.8 102280 41
2011-05-09 07:53:52 51°12.152 2°47.549 -999 331 13.8 102280 41
2011-05-09 07:53:57 51°12.146 2°47.521 -999 330 13.8 102280 41
2011-05-09 07:54:03 51°12.138 2°47.488 -999 332 13.8 102270 41
2011-05-09 07:54:08 51°12.132 2°47.46 -999 332 13.8 102270 41
2011-05-09 07:54:12 51°12.128 2°47.438 -999 332 13.8 102270 41
2011-05-09 07:54:18 51°12.121 2°47.404 -999 333 13.8 102270 41
2011-05-09 07:54:23 51°12.115 2°47.376 -999 332 13.8 102280 41
2011-05-09 07:54:28 51°12.11 2°47.348 -999 331 13.8 102280 41
2011-05-09 07:54:32 51°12.105 2°47.325 -999 282 13.8 102280 41
2011-05-09 07:54:37 51°12.099 2°47.298 -999 332 13.8 102280 41
2011-05-09 07:54:43 51°12.093 2°47.264 -999 332 13.8 102280 41
2011-05-09 07:54:48 51°12.086 2°47.236 -999 333 13.8 102280 41
2011-05-09 07:54:52 51°12.081 2°47.214 -999 332 13.8 102270 41
2011-05-09 07:54:58 51°12.074 2°47.182 -999 332 13.8 102270 41
2011-05-09 07:55:03 51°12.067 2°47.155 -999 332 13.8 102280 40
2011-05-09 07:55:08 51°12.06 2°47.128 -999 333 13.8 102280 40
2011-05-09 07:55:12 51°12.054 2°47.106 -999 282 13.8 102270 41
2011-05-09 07:55:18 51°12.045 2°47.074 -999 332 13.8 102270 41
2011-05-09 07:55:23 51°12.038 2°47.048 -999 333 13.8 102280 41
2011-05-09 07:55:28 51°12.031 2°47.022 -999 333 13.8 102280 41
2011-05-09 07:55:32 51°12.025 2°47 -999 333 13.8 102280 41
2011-05-09 07:55:38 51°12.016 2°46.968 -999 332 13.8 102280 41
2011-05-09 07:55:43 51°12.009 2°46.941 -999 332 13.8 102280 41
2011-05-09 07:55:48 51°12.003 2°46.914 -999 332 13.8 102280 41
2011-05-09 07:55:52 51°11.997 2°46.892 -999 332 13.8 102280 41
2011-05-09 07:55:58 51°11.99 2°46.859 -999 332 13.8 102280 41
2011-05-09 07:56:03 51°11.984 2°46.832 -999 332 13.8 102280 41
2011-05-09 07:56:08 51°11.978 2°46.804 -999 332 13.8 102280 41
2011-05-09 07:56:12 51°11.973 2°46.782 -999 332 13.8 102280 41
2011-05-09 07:56:17 51°11.968 2°46.754 -999 331 13.8 102280 41
2011-05-09 07:56:23 51°11.961 2°46.721 -999 282 13.8 102280 41
2011-05-09 07:56:28 51°11.956 2°46.693 -999 332 13.8 102280 41
2011-05-09 07:56:32 51°11.951 2°46.671 -999 332 13.8 102270 41
2011-05-09 07:56:38 51°11.944 2°46.637 -999 332 13.8 102270 41
2011-05-09 07:56:43 51°11.938 2°46.61 -999 332 13.8 102270 41
2011-05-09 07:56:48 51°11.933 2°46.581 -999 333 13.8 102270 41
2011-05-09 07:56:52 51°11.928 2°46.559 -999 282 13.8 102280 41
2011-05-09 07:56:57 51°11.923 2°46.531 -999 333 13.8 102280 41
2011-05-09 07:57:03 51°11.916 2°46.498 -999 332 13.8 102280 41
2011-05-09 07:57:08 51°11.91 2°46.47 -999 332 13.8 102280 41
2011-05-09 07:57:12 51°11.905 2°46.448 -999 333 13.8 102280 41
2011-05-09 07:57:18 51°11.898 2°46.415 -999 333 13.8 102280 41
2011-05-09 07:57:23 51°11.891 2°46.388 -999 332 13.8 102280 41
2011-05-09 07:57:28 51°11.884 2°46.36 -999 332 13.8 102280 41
2011-05-09 07:57:32 51°11.879 2°46.338 -999 332 13.8 102280 41
2011-05-09 07:57:38 51°11.87 2°46.306 -999 334 13.8 102280 41
2011-05-09 07:57:43 51°11.863 2°46.279 -999 333 13.9 102280 40
2011-05-09 07:57:48 51°11.855 2°46.252 -999 333 13.9 102280 40
2011-05-09 07:57:52 51°11.849 2°46.231 -999 333 13.9 102280 41
2011-05-09 07:57:58 51°11.841 2°46.198 -999 332 13.9 102280 41
2011-05-09 07:58:03 51°11.833 2°46.172 -999 333 13.9 102270 41
2011-05-09 07:58:08 51°11.826 2°46.145 -999 333 13.9 102270 41
2011-05-09 07:58:12 51°11.82 2°46.123 -999 332 13.9 102280 41
2011-05-09 07:58:17 51°11.813 2°46.096 -999 332 13.9 102280 41
2011-05-09 07:58:22 51°11.806 2°46.068 -999 282 13.8 102270 41
2011-05-09 07:58:28 51°11.798 2°46.036 -999 332 13.8 102270 41
2011-05-09 07:58:32 51°11.792 2°46.014 -999 331 13.8 102270 41
2011-05-09 07:58:37 51°11.786 2°45.986 -999 332 13.8 102270 41
2011-05-09 07:58:43 51°11.778 2°45.953 -999 282 13.8 102280 41
2011-05-09 07:58:48 51°11.772 2°45.925 -999 331 13.8 102280 41
2011-05-09 07:58:52 51°11.768 2°45.903 -999 332 13.8 102280 41
2011-05-09 07:58:58 51°11.761 2°45.869 -999 332 13.8 102280 41
2011-05-09 07:59:03 51°11.757 2°45.84 -999 333 13.8 102270 41
2011-05-09 07:59:08 51°11.753 2°45.811 -999 332 13.8 102270 41
2011-05-09 07:59:12 51°11.75 2°45.788 -999 282 13.9 102280 41
2011-05-09 07:59:17 51°11.746 2°45.759 -999 332 13.9 102280 41
2011-05-09 07:59:23 51°11.743 2°45.724 -999 332 13.9 102270 41
2011-05-09 07:59:28 51°11.74 2°45.695 -999 331 13.9 102270 41
2011-05-09 07:59:32 51°11.738 2°45.672 -999 331 13.9 102280 41
2011-05-09 07:59:38 51°11.734 2°45.637 -999 332 13.9 102280 41
2011-05-09 07:59:43 51°11.731 2°45.608 -999 331 13.9 102270 41
2011-05-09 07:59:48 51°11.729 2°45.578 -999 331 13.9 102270 41
2011-05-09 07:59:52 51°11.727 2°45.555 -999 282 13.8 102280 41
2011-05-09 07:59:58 51°11.723 2°45.52 -999 332 13.8 102280 41
2011-05-09 08:00:03 51°11.72 2°45.491 -999 332 13.8 102270 41
2011-05-09 08:00:08 51°11.718 2°45.462 -999 332 13.8 102270 41
2011-05-09 08:00:12 51°11.715 2°45.438 -999 331 13.8 102270 41
2011-05-09 08:00:18 51°11.712 2°45.404 -999 331 13.8 102270 41
2011-05-09 08:00:23 51°11.709 2°45.375 -999 331 13.8 102280 40
2011-05-09 08:00:28 51°11.706 2°45.345 -999 332 13.8 102280 40
2011-05-09 08:00:32 51°11.703 2°45.322 -999 332 13.8 102270 41
2011-05-09 08:00:37 51°11.7 2°45.293 -999 331 13.8 102270 41
2011-05-09 08:00:42 51°11.697 2°45.265 -999 281 13.8 102270 41
2011-05-09 08:00:48 51°11.692 2°45.23 -999 332 13.8 102270 41
2011-05-09 08:00:52 51°11.689 2°45.207 -999 331 13.9 102270 41
2011-05-09 08:00:57 51°11.684 2°45.179 -999 332 13.9 102270 41
2011-05-09 08:01:03 51°11.679 2°45.145 -999 332 13.9 102270 42
2011-05-09 08:01:08 51°11.674 2°45.116 -999 332 13.9 102270 42
2011-05-09 08:01:12 51°11.671 2°45.093 -999 333 13.9 102270 42
2011-05-09 08:01:18 51°11.665 2°45.059 -999 331 13.9 102270 42
2011-05-09 08:01:23 51°11.661 2°45.031 -999 332 13.9 102270 41
2011-05-09 08:01:28 51°11.657 2°45.002 -999 332 13.9 102270 41
2011-05-09 08:01:32 51°11.654 2°44.979 -999 282 13.9 102270 41
2011-05-09 08:01:37 51°11.649 2°44.951 -999 332 13.9 102270 41
2011-05-09 08:01:43 51°11.645 2°44.916 -999 333 13.9 102270 41
2011-05-09 08:01:48 51°11.641 2°44.887 -999 332 13.9 102270 41
2011-05-09 08:01:52 51°11.638 2°44.864 -999 332 13.9 102270 41
2011-05-09 08:01:58 51°11.634 2°44.829 -999 332 13.9 102270 41
2011-05-09 08:02:03 51°11.63 2°44.8 -999 331 13.9 102270 41
2011-05-09 08:02:08 51°11.627 2°44.771 -999 332 13.9 102270 41
2011-05-09 08:02:12 51°11.625 2°44.748 -999 332 13.8 102270 41
2011-05-09 08:02:18 51°11.621 2°44.713 -999 332 13.8 102270 41
2011-05-09 08:02:23 51°11.618 2°44.684 -999 332 13.9 102270 41
2011-05-09 08:02:28 51°11.615 2°44.654 -999 332 13.9 102270 41
2011-05-09 08:02:32 51°11.613 2°44.631 -999 331 13.8 102270 41
2011-05-09 08:02:38 51°11.609 2°44.596 -999 332 13.8 102270 41
2011-05-09 08:02:43 51°11.606 2°44.567 -999 332 13.8 102270 41
2011-05-09 08:02:48 51°11.603 2°44.538 -999 332 13.8 102270 41
2011-05-09 08:02:52 51°11.6 2°44.515 -999 332 13.9 102270 42
2011-05-09 08:02:57 51°11.597 2°44.486 -999 333 13.9 102270 42
2011-05-09 08:03:02 51°11.594 2°44.457 -999 332 13.9 102270 40
2011-05-09 08:03:08 51°11.59 2°44.422 -999 333 13.9 102270 40
2011-05-09 08:03:12 51°11.587 2°44.399 -999 332 13.9 102270 42
2011-05-09 08:03:17 51°11.584 2°44.37 -999 333 13.9 102270 42
2011-05-09 08:03:23 51°11.58 2°44.335 -999 334 13.9 102270 41
2011-05-09 08:03:28 51°11.577 2°44.306 -999 331 13.9 102270 41
2011-05-09 08:03:32 51°11.574 2°44.282 -999 332 13.9 102270 41
2011-05-09 08:03:38 51°11.571 2°44.247 -999 331 13.9 102270 41
2011-05-09 08:03:43 51°11.569 2°44.218 -999 333 13.9 102270 41
2011-05-09 08:03:48 51°11.566 2°44.189 -999 332 13.9 102270 41
2011-05-09 08:03:52 51°11.564 2°44.165 -999 282 13.8 102270 41
2011-05-09 08:03:57 51°11.562 2°44.136 -999 332 13.8 102270 41
2011-05-09 08:04:03 51°11.56 2°44.1 -999 332 13.8 102270 41
2011-05-09 08:04:08 51°11.558 2°44.071 -999 332 13.8 102270 41
2011-05-09 08:04:12 51°11.556 2°44.047 -999 333 13.9 102270 41
2011-05-09 08:04:18 51°11.554 2°44.012 -999 334 13.9 102270 41
2011-05-09 08:04:23 51°11.552 2°43.983 -999 332 13.9 102270 41
2011-05-09 08:04:28 51°11.55 2°43.953 -999 332 13.9 102270 41
2011-05-09 08:04:32 51°11.549 2°43.93 -999 331 13.8 102270 41
2011-05-09 08:04:38 51°11.547 2°43.894 -999 332 13.8 102270 41
2011-05-09 08:04:43 51°11.545 2°43.865 -999 332 13.9 102270 41
2011-05-09 08:04:48 51°11.544 2°43.836 -999 331 13.9 102270 41
2011-05-09 08:04:52 51°11.543 2°43.812 -999 332 13.8 102270 41
2011-05-09 08:04:57 51°11.542 2°43.783 -999 332 13.8 102270 41
2011-05-09 08:05:03 51°11.541 2°43.748 -999 332 13.8 102270 41
2011-05-09 08:05:08 51°11.54 2°43.718 -999 332 13.8 102270 41
2011-05-09 08:05:12 51°11.539 2°43.695 -999 333 13.8 102270 41
2011-05-09 08:05:17 51°11.538 2°43.665 -999 332 13.8 102270 41
2011-05-09 08:05:22 51°11.536 2°43.636 -999 282 13.8 102270 41
2011-05-09 08:05:28 51°11.534 2°43.601 -999 334 13.8 102270 41
2011-05-09 08:05:32 51°11.533 2°43.578 -999 281 13.8 102280 41
2011-05-09 08:05:37 51°11.531 2°43.549 -999 332 13.8 102280 41
2011-05-09 08:05:43 51°11.528 2°43.514 -999 332 13.8 102270 40
2011-05-09 08:05:48 51°11.525 2°43.485 -999 332 13.8 102270 40
2011-05-09 08:05:52 51°11.523 2°43.462 -999 282 13.8 102270 41
2011-05-09 08:05:58 51°11.519 2°43.427 -999 331 13.8 102270 41
2011-05-09 08:06:03 51°11.516 2°43.398 -999 332 13.8 102270 41
2011-05-09 08:06:08 51°11.513 2°43.37 -999 332 13.8 102270 41
2011-05-09 08:06:12 51°11.511 2°43.347 -999 282 13.8 102270 41
2011-05-09 08:06:17 51°11.508 2°43.318 -999 332 13.8 102270 41
2011-05-09 08:06:23 51°11.504 2°43.283 -999 331 13.8 102280 41
2011-05-09 08:06:28 51°11.502 2°43.254 -999 331 13.8 102280 41
2011-05-09 08:06:32 51°11.5 2°43.231 -999 282 13.8 102270 41
2011-05-09 08:06:38 51°11.498 2°43.196 -999 330 13.8 102270 41
2011-05-09 08:06:43 51°11.496 2°43.167 -999 331 13.8 102270 41
2011-05-09 08:06:48 51°11.495 2°43.137 -999 331 13.8 102270 41
2011-05-09 08:06:52 51°11.494 2°43.114 -999 331 13.8 102280 41
2011-05-09 08:06:57 51°11.493 2°43.085 -999 331 13.8 102280 41
2011-05-09 08:07:03 51°11.492 2°43.049 -999 330 13.8 102280 41
2011-05-09 08:07:08 51°11.491 2°43.02 -999 331 13.8 102280 41
2011-05-09 08:07:12 51°11.49 2°42.997 -999 332 13.8 102270 41
2011-05-09 08:07:18 51°11.488 2°42.962 -999 331 13.8 102270 41
2011-05-09 08:07:23 51°11.486 2°42.933 -999 282 13.8 102270 41
2011-05-09 08:07:28 51°11.484 2°42.903 -999 331 13.8 102270 41
2011-05-09 08:07:32 51°11.481 2°42.88 -999 331 13.8 102280 41
2011-05-09 08:07:37 51°11.479 2°42.851 -999 331 13.8 102280 41
2011-05-09 08:07:42 51°11.476 2°42.822 -999 331 13.8 102280 41
2011-05-09 08:07:48 51°11.472 2°42.787 -999 331 13.8 102280 41
2011-05-09 08:07:52 51°11.469 2°42.764 -999 331 13.8 102280 41
2011-05-09 08:07:58 51°11.465 2°42.729 -999 331 13.8 102280 41
2011-05-09 08:08:03 51°11.462 2°42.701 -999 331 13.8 102280 41
2011-05-09 08:08:08 51°11.459 2°42.672 -999 330 13.8 102280 41
2011-05-09 08:08:12 51°11.457 2°42.648 -999 330 13.8 102270 41
2011-05-09 08:08:18 51°11.455 2°42.613 -999 330 13.8 102270 41
2011-05-09 08:08:23 51°11.452 2°42.584 -999 331 13.8 102280 40
2011-05-09 08:08:28 51°11.451 2°42.555 -999 330 13.8 102280 40
2011-05-09 08:08:32 51°11.45 2°42.531 -999 282 13.8 102270 41
2011-05-09 08:08:38 51°11.449 2°42.496 -999 330 13.8 102270 41
2011-05-09 08:08:43 51°11.448 2°42.467 -999 330 13.9 102280 41
2011-05-09 08:08:48 51°11.447 2°42.437 -999 330 13.9 102280 41
2011-05-09 08:08:52 51°11.446 2°42.414 -999 330 13.8 102280 41
2011-05-09 08:08:58 51°11.444 2°42.379 -999 331 13.8 102280 41
2011-05-09 08:09:03 51°11.443 2°42.349 -999 331 13.8 102280 41
2011-05-09 08:09:08 51°11.441 2°42.32 -999 331 13.8 102280 41
2011-05-09 08:09:12 51°11.439 2°42.297 -999 331 13.9 102280 41
2011-05-09 08:09:17 51°11.436 2°42.268 -999 332 13.9 102280 41
2011-05-09 08:09:23 51°11.431 2°42.234 -999 332 13.9 102270 41
2011-05-09 08:09:28 51°11.427 2°42.206 -999 332 13.9 102270 41
2011-05-09 08:09:32 51°11.423 2°42.183 -999 282 13.9 102270 41
2011-05-09 08:09:37 51°11.418 2°42.155 -999 332 13.9 102270 41
2011-05-09 08:09:42 51°11.414 2°42.126 -999 332 13.9 102280 41
2011-05-09 08:09:48 51°11.408 2°42.093 -999 331 13.9 102280 41
2011-05-09 08:09:52 51°11.404 2°42.07 -999 332 13.9 102280 41
2011-05-09 08:09:57 51°11.399 2°42.042 -999 331 13.9 102280 41
2011-05-09 08:10:03 51°11.393 2°42.008 -999 332 13.8 102270 41
2011-05-09 08:10:08 51°11.388 2°41.98 -999 331 13.8 102270 41
2011-05-09 08:10:12 51°11.384 2°41.957 -999 281 13.9 102280 41
2011-05-09 08:10:17 51°11.379 2°41.929 -999 331 13.9 102280 41
2011-05-09 08:10:23 51°11.373 2°41.895 -999 330 13.8 102270 41
2011-05-09 08:10:28 51°11.369 2°41.866 -999 331 13.8 102270 41
2011-05-09 08:10:32 51°11.365 2°41.844 -999 282 13.8 102280 41
2011-05-09 08:10:38 51°11.359 2°41.81 -999 331 13.8 102280 41
2011-05-09 08:10:43 51°11.354 2°41.782 -999 331 13.9 102280 41
2011-05-09 08:10:48 51°11.348 2°41.754 -999 332 13.9 102280 41
2011-05-09 08:10:52 51°11.344 2°41.731 -999 282 13.9 102280 41
2011-05-09 08:10:57 51°11.338 2°41.703 -999 332 13.9 102280 41
2011-05-09 08:11:03 51°11.33 2°41.67 -999 333 13.8 102280 39
2011-05-09 08:11:08 51°11.323 2°41.643 -999 333 13.8 102280 39
2011-05-09 08:11:12 51°11.318 2°41.621 -999 332 13.8 102280 41
2011-05-09 08:11:18 51°11.308 2°41.589 -999 333 13.8 102280 41
2011-05-09 08:11:23 51°11.3 2°41.563 -999 333 13.8 102280 41
2011-05-09 08:11:28 51°11.291 2°41.537 -999 333 13.8 102280 41
2011-05-09 08:11:32 51°11.283 2°41.517 -999 334 13.8 102270 41
2011-05-09 08:11:37 51°11.274 2°41.493 -999 333 13.8 102270 41
2011-05-09 08:11:43 51°11.262 2°41.463 -999 282 13.9 102270 41
2011-05-09 08:11:48 51°11.251 2°41.439 -999 333 13.9 102270 41
2011-05-09 08:11:52 51°11.242 2°41.42 -999 333 13.9 102280 41
2011-05-09 08:11:57 51°11.232 2°41.396 -999 333 13.9 102280 41
2011-05-09 08:12:03 51°11.218 2°41.369 -999 332 13.9 102270 41
2011-05-09 08:12:08 51°11.207 2°41.345 -999 333 13.9 102270 41
2011-05-09 08:12:12 51°11.198 2°41.326 -999 282 13.9 102280 41
2011-05-09 08:12:17 51°11.187 2°41.303 -999 334 13.9 102280 41
2011-05-09 08:12:22 51°11.176 2°41.279 -999 334 13.9 102280 41
2011-05-09 08:12:28 51°11.163 2°41.251 -999 334 13.9 102280 41
2011-05-09 08:12:32 51°11.154 2°41.231 -999 281 13.9 102280 41
2011-05-09 08:12:37 51°11.143 2°41.208 -999 334 13.9 102280 41
2011-05-09 08:12:42 51°11.133 2°41.183 -999 282 13.9 102280 41
2011-05-09 08:12:48 51°11.121 2°41.154 -999 332 13.9 102280 41
2011-05-09 08:12:52 51°11.114 2°41.135 -999 281 13.9 102280 41
2011-05-09 08:12:58 51°11.101 2°41.104 -999 333 13.9 102280 41
2011-05-09 08:13:03 51°11.091 2°41.079 -999 333 13.9 102270 41
2011-05-09 08:13:08 51°11.081 2°41.054 -999 333 13.9 102270 41
2011-05-09 08:13:12 51°11.074 2°41.033 -999 333 13.9 102280 41
2011-05-09 08:13:18 51°11.062 2°41.003 -999 333 13.9 102280 41
2011-05-09 08:13:23 51°11.053 2°40.978 -999 333 13.9 102270 41
2011-05-09 08:13:28 51°11.043 2°40.953 -999 333 13.9 102270 41
2011-05-09 08:13:32 51°11.036 2°40.932 -999 333 13.9 102280 41
2011-05-09 08:13:38 51°11.025 2°40.902 -999 333 13.9 102280 41
2011-05-09 08:13:43 51°11.015 2°40.877 -999 333 13.9 102270 40
2011-05-09 08:13:48 51°11.007 2°40.851 -999 334 13.9 102270 40
2011-05-09 08:13:52 51°10.999 2°40.831 -999 333 13.9 102270 41
2011-05-09 08:13:57 51°10.99 2°40.806 -999 332 13.9 102270 41
2011-05-09 08:14:03 51°10.978 2°40.777 -999 334 13.9 102270 41
2011-05-09 08:14:08 51°10.967 2°40.754 -999 333 13.9 102270 41
2011-05-09 08:14:12 51°10.959 2°40.734 -999 333 13.9 102280 41
2011-05-09 08:14:18 51°10.946 2°40.706 -999 334 13.9 102280 41
2011-05-09 08:14:22 51°10.938 2°40.688 -999 333 13.9 102280 41
2011-05-09 08:14:28 51°10.925 2°40.66 -999 333 13.9 102280 41
2011-05-09 08:14:32 51°10.917 2°40.641 -999 281 13.9 102280 41
2011-05-09 08:14:37 51°10.906 2°40.617 -999 334 13.9 102280 41
2011-05-09 08:14:42 51°10.896 2°40.593 -999 333 13.9 102280 41
2011-05-09 08:14:48 51°10.884 2°40.564 -999 333 13.9 102280 41
2011-05-09 08:14:52 51°10.876 2°40.545 -999 282 13.9 102280 41
2011-05-09 08:14:58 51°10.864 2°40.516 -999 332 13.9 102280 41
2011-05-09 08:15:02 51°10.856 2°40.496 -999 333 13.9 102270 41
2011-05-09 08:15:08 51°10.843 2°40.467 -999 333 13.9 102270 41
2011-05-09 08:15:12 51°10.835 2°40.448 -999 281 13.9 102280 41
2011-05-09 08:15:18 51°10.823 2°40.419 -999 333 13.9 102280 41
2011-05-09 08:15:23 51°10.813 2°40.395 -999 333 13.9 102280 41
2011-05-09 08:15:28 51°10.802 2°40.371 -999 332 13.9 102280 41
2011-05-09 08:15:32 51°10.794 2°40.351 -999 333 13.9 102280 41
2011-05-09 08:15:38 51°10.782 2°40.322 -999 334 13.9 102280 41
2011-05-09 08:15:42 51°10.774 2°40.303 -999 282 13.9 102280 41
2011-05-09 08:15:48 51°10.762 2°40.273 -999 331 13.9 102280 41
2011-05-09 08:15:52 51°10.754 2°40.253 -999 282 13.9 102280 41
2011-05-09 08:15:58 51°10.743 2°40.223 -999 332 13.9 102280 41
2011-05-09 08:16:03 51°10.734 2°40.198 -999 332 13.9 102280 41
2011-05-09 08:16:08 51°10.725 2°40.172 -999 331 13.9 102280 41
2011-05-09 08:16:12 51°10.717 2°40.152 -999 333 13.9 102280 41
2011-05-09 08:16:18 51°10.706 2°40.121 -999 333 13.9 102280 41
2011-05-09 08:16:23 51°10.698 2°40.095 -999 333 13.9 102280 39
2011-05-09 08:16:28 51°10.688 2°40.07 -999 333 13.9 102280 39
2011-05-09 08:16:32 51°10.681 2°40.049 -999 282 13.9 102280 41
2011-05-09 08:16:37 51°10.672 2°40.023 -999 334 13.9 102280 41
2011-05-09 08:16:43 51°10.66 2°39.993 -999 333 14 102280 41
2011-05-09 08:16:48 51°10.651 2°39.968 -999 333 14 102280 41
2011-05-09 08:16:52 51°10.642 2°39.949 -999 333 14 102280 41
2011-05-09 08:16:57 51°10.632 2°39.924 -999 333 14 102280 41
2011-05-09 08:17:02 51°10.622 2°39.9 -999 333 13.9 102270 41
2011-05-09 08:17:08 51°10.609 2°39.872 -999 334 13.9 102270 41
2011-05-09 08:17:12 51°10.601 2°39.852 -999 282 14 102270 41
2011-05-09 08:17:17 51°10.59 2°39.828 -999 335 14 102270 41
2011-05-09 08:17:22 51°10.579 2°39.804 -999 334 14 102280 41
2011-05-09 08:17:28 51°10.567 2°39.775 -999 335 14 102280 41
2011-05-09 08:17:32 51°10.559 2°39.755 -999 281 14 102280 41
2011-05-09 08:17:38 51°10.546 2°39.726 -999 334 14 102280 41
2011-05-09 08:17:43 51°10.536 2°39.701 -999 334 14 102280 41
2011-05-09 08:17:48 51°10.526 2°39.676 -999 335 14 102280 41
2011-05-09 08:17:52 51°10.518 2°39.656 -999 333 14 102280 41
2011-05-09 08:17:58 51°10.506 2°39.627 -999 334 14 102280 41
2011-05-09 08:18:02 51°10.497 2°39.607 -999 334 14 102280 41
2011-05-09 08:18:08 51°10.485 2°39.578 -999 333 14 102280 41
2011-05-09 08:18:12 51°10.476 2°39.558 -999 334 14 102280 40
2011-05-09 08:18:18 51°10.464 2°39.528 -999 334 14 102280 40
2011-05-09 08:18:23 51°10.453 2°39.504 -999 334 13.9 102280 41
2011-05-09 08:18:28 51°10.443 2°39.48 -999 333 13.9 102280 41
2011-05-09 08:18:32 51°10.434 2°39.459 -999 335 13.9 102280 40
2011-05-09 08:18:38 51°10.423 2°39.429 -999 335 13.9 102280 40
2011-05-09 08:18:42 51°10.415 2°39.409 -999 335 14 102280 40
2011-05-09 08:18:48 51°10.404 2°39.378 -999 336 14 102280 40
2011-05-09 08:18:52 51°10.396 2°39.357 -999 335 14 102280 40
2011-05-09 08:18:57 51°10.387 2°39.332 -999 335 14 102280 40
2011-05-09 08:19:02 51°10.378 2°39.306 -999 334 14 102280 39
2011-05-09 08:19:08 51°10.367 2°39.275 -999 335 14 102280 39
2011-05-09 08:19:12 51°10.359 2°39.255 -999 336 14 102280 40
2011-05-09 08:19:18 51°10.348 2°39.224 -999 335 14 102280 40
2011-05-09 08:19:23 51°10.339 2°39.198 -999 335 14 102280 40
2011-05-09 08:19:28 51°10.33 2°39.172 -999 334 14 102280 40
2011-05-09 08:19:32 51°10.323 2°39.152 -999 281 14 102280 40
2011-05-09 08:19:38 51°10.311 2°39.121 -999 334 14 102280 40
2011-05-09 08:19:42 51°10.304 2°39.1 -999 335 14 102280 40
2011-05-09 08:19:48 51°10.293 2°39.07 -999 334 14 102280 40
2011-05-09 08:19:52 51°10.285 2°39.049 -999 281 14 102280 40
2011-05-09 08:19:58 51°10.274 2°39.019 -999 335 14 102280 40
2011-05-09 08:20:02 51°10.266 2°38.998 -999 336 14 102280 40
2011-05-09 08:20:08 51°10.255 2°38.968 -999 335 14 102280 40
2011-05-09 08:20:12 51°10.247 2°38.948 -999 335 14 102280 40
2011-05-09 08:20:18 51°10.235 2°38.918 -999 336 14 102280 40
2011-05-09 08:20:23 51°10.225 2°38.893 -999 334 14.1 102280 40
2011-05-09 08:20:28 51°10.214 2°38.868 -999 335 14.1 102280 40
2011-05-09 08:20:32 51°10.206 2°38.849 -999 336 14.1 102290 40
2011-05-09 08:20:37 51°10.195 2°38.825 -999 336 14.1 102290 40
2011-05-09 08:20:42 51°10.185 2°38.801 -999 282 14.1 102280 40
2011-05-09 08:20:48 51°10.172 2°38.772 -999 336 14.1 102280 40
2011-05-09 08:20:52 51°10.163 2°38.752 -999 336 14.1 102280 40
2011-05-09 08:20:58 51°10.15 2°38.723 -999 335 14.1 102280 40
2011-05-09 08:21:02 51°10.142 2°38.704 -999 337 14.1 102280 40
2011-05-09 08:21:08 51°10.129 2°38.675 -999 336 14.1 102280 40
2011-05-09 08:21:12 51°10.121 2°38.655 -999 281 14.1 102290 40
2011-05-09 08:21:18 51°10.108 2°38.625 -999 336 14.1 102290 40
2011-05-09 08:21:22 51°10.1 2°38.605 -999 335 14.1 102290 40
2011-05-09 08:21:28 51°10.088 2°38.575 -999 335 14.1 102290 40
2011-05-09 08:21:32 51°10.08 2°38.555 -999 335 14.1 102280 40
2011-05-09 08:21:38 51°10.068 2°38.524 -999 336 14.1 102280 40
2011-05-09 08:21:43 51°10.059 2°38.499 -999 336 14.2 102290 38
2011-05-09 08:21:48 51°10.05 2°38.473 -999 335 14.2 102290 38
2011-05-09 08:21:52 51°10.042 2°38.452 -999 282 14.2 102290 40
2011-05-09 08:21:58 51°10.031 2°38.421 -999 335 14.2 102290 40
2011-05-09 08:22:02 51°10.024 2°38.4 -999 335 14.2 102290 40
2011-05-09 08:22:08 51°10.012 2°38.369 -999 334 14.2 102290 40
2011-05-09 08:22:12 51°10.005 2°38.348 -999 334 14.2 102280 40
2011-05-09 08:22:18 51°9.994 2°38.317 -999 334 14.2 102280 40
2011-05-09 08:22:23 51°9.985 2°38.291 -999 334 14.2 102280 40
2011-05-09 08:22:28 51°9.976 2°38.265 -999 335 14.2 102280 40
2011-05-09 08:22:32 51°9.969 2°38.244 -999 334 14.2 102280 40
2011-05-09 08:22:38 51°9.958 2°38.212 -999 334 14.2 102280 40
2011-05-09 08:22:43 51°9.949 2°38.186 -999 282 14.2 102280 40
2011-05-09 08:22:48 51°9.939 2°38.16 -999 334 14.2 102280 40
2011-05-09 08:22:52 51°9.931 2°38.14 -999 335 14.2 102290 40
2011-05-09 08:22:57 51°9.921 2°38.115 -999 335 14.2 102290 40
2011-05-09 08:23:03 51°9.908 2°38.085 -999 335 14.2 102280 40
2011-05-09 08:23:08 51°9.898 2°38.061 -999 334 14.2 102280 40
2011-05-09 08:23:12 51°9.889 2°38.042 -999 333 14.3 102280 40
2011-05-09 08:23:18 51°9.876 2°38.012 -999 335 14.3 102280 40
2011-05-09 08:23:22 51°9.868 2°37.993 -999 336 14.3 102280 40
2011-05-09 08:23:28 51°9.855 2°37.963 -999 334 14.3 102280 40
2011-05-09 08:23:32 51°9.847 2°37.943 -999 334 14.3 102290 40
2011-05-09 08:23:37 51°9.836 2°37.919 -999 334 14.3 102290 40
2011-05-09 08:23:42 51°9.827 2°37.893 -999 336 14.3 102290 40
2011-05-09 08:23:48 51°9.815 2°37.863 -999 333 14.3 102290 40
2011-05-09 08:23:52 51°9.807 2°37.842 -999 281 14.3 102290 40
2011-05-09 08:23:58 51°9.796 2°37.811 -999 333 14.3 102290 40
2011-05-09 08:24:02 51°9.788 2°37.791 -999 333 14.3 102290 40
2011-05-09 08:24:08 51°9.777 2°37.759 -999 334 14.3 102290 40
2011-05-09 08:24:12 51°9.77 2°37.738 -999 334 14.3 102290 40
2011-05-09 08:24:18 51°9.758 2°37.706 -999 336 14.3 102290 40
2011-05-09 08:24:22 51°9.751 2°37.686 -999 335 14.3 102280 38
2011-05-09 08:24:28 51°9.74 2°37.654 -999 335 14.3 102280 38
2011-05-09 08:24:32 51°9.733 2°37.633 -999 334 14.4 102290 40
2011-05-09 08:24:38 51°9.721 2°37.602 -999 336 14.4 102290 40
2011-05-09 08:24:43 51°9.712 2°37.576 -999 335 14.4 102280 40
2011-05-09 08:24:48 51°9.702 2°37.55 -999 337 14.4 102280 40
2011-05-09 08:24:52 51°9.695 2°37.53 -999 334 14.4 102280 39
2011-05-09 08:24:57 51°9.685 2°37.504 -999 335 14.4 102280 39
2011-05-09 08:25:03 51°9.672 2°37.474 -999 338 14.4 102280 39
2011-05-09 08:25:08 51°9.662 2°37.449 -999 338 14.4 102280 39
2011-05-09 08:25:12 51°9.653 2°37.429 -999 335 14.4 102280 39
2011-05-09 08:25:18 51°9.64 2°37.4 -999 337 14.4 102280 39
2011-05-09 08:25:23 51°9.629 2°37.375 -999 282 14.4 102280 39
2011-05-09 08:25:28 51°9.618 2°37.35 -999 338 14.4 102280 39
2011-05-09 08:25:32 51°9.61 2°37.33 -999 282 14.4 102280 39
2011-05-09 08:25:37 51°9.599 2°37.306 -999 339 14.4 102280 39
2011-05-09 08:25:42 51°9.589 2°37.28 -999 337 14.4 102280 39
2011-05-09 08:25:48 51°9.577 2°37.25 -999 336 14.4 102280 39
2011-05-09 08:25:52 51°9.569 2°37.229 -999 281 14.4 102280 39
2011-05-09 08:25:58 51°9.557 2°37.198 -999 336 14.4 102280 39
2011-05-09 08:26:02 51°9.549 2°37.178 -999 337 14.4 102280 39
2011-05-09 08:26:08 51°9.538 2°37.146 -999 337 14.4 102280 39
2011-05-09 08:26:12 51°9.53 2°37.125 -999 337 14.4 102280 39
2011-05-09 08:26:18 51°9.519 2°37.094 -999 335 14.4 102280 39
2011-05-09 08:26:22 51°9.511 2°37.073 -999 281 14.4 102280 39
2011-05-09 08:26:28 51°9.5 2°37.04 -999 337 14.4 102280 39
2011-05-09 08:26:32 51°9.493 2°37.019 -999 337 14.4 102280 39
2011-05-09 08:26:38 51°9.482 2°36.988 -999 337 14.4 102280 39
2011-05-09 08:26:43 51°9.472 2°36.961 -999 337 14.4 102280 39
2011-05-09 08:26:48 51°9.463 2°36.935 -999 337 14.4 102280 39
2011-05-09 08:26:52 51°9.455 2°36.914 -999 337 14.4 102280 39
2011-05-09 08:26:58 51°9.444 2°36.883 -999 338 14.4 102280 39
2011-05-09 08:27:03 51°9.433 2°36.857 -999 337 14.5 102280 37
2011-05-09 08:27:08 51°9.423 2°36.831 -999 337 14.5 102280 37
2011-05-09 08:27:12 51°9.415 2°36.812 -999 337 14.5 102280 39
2011-05-09 08:27:16 51°9.406 2°36.791 -999 338 14.5 102280 39
2011-05-09 08:27:23 51°9.391 2°36.756 -999 338 14.5 102280 39
2011-05-09 08:27:28 51°9.381 2°36.731 -999 337 14.5 102280 39
2011-05-09 08:27:32 51°9.372 2°36.711 -999 282 14.5 102280 39
2011-05-09 08:27:37 51°9.361 2°36.686 -999 337 14.5 102280 39
2011-05-09 08:27:42 51°9.351 2°36.662 -999 337 14.5 102280 39
2011-05-09 08:27:48 51°9.339 2°36.633 -999 337 14.5 102280 39
2011-05-09 08:27:52 51°9.331 2°36.613 -999 338 14.5 102280 39
2011-05-09 08:27:58 51°9.32 2°36.585 -999 337 14.5 102280 39
2011-05-09 08:28:02 51°9.314 2°36.566 -999 338 14.5 102280 39
2011-05-09 08:28:08 51°9.305 2°36.537 -999 336 14.5 102280 39
2011-05-09 08:28:12 51°9.3 2°36.518 -999 281 14.5 102290 39
2011-05-09 08:28:18 51°9.293 2°36.49 -999 335 14.5 102290 39
2011-05-09 08:28:22 51°9.29 2°36.472 -999 335 14.5 102280 39
2011-05-09 08:28:28 51°9.286 2°36.446 -999 334 14.5 102280 39
2011-05-09 08:28:32 51°9.284 2°36.429 -999 334 14.5 102290 39
2011-05-09 08:28:38 51°9.281 2°36.406 -999 332 14.5 102290 39
2011-05-09 08:28:43 51°9.28 2°36.387 -999 334 14.5 102280 39
2011-05-09 08:28:48 51°9.278 2°36.369 -999 333 14.5 102280 39
2011-05-09 08:28:52 51°9.278 2°36.355 -999 333 14.5 102290 39
2011-05-09 08:28:58 51°9.276 2°36.335 -999 333 14.5 102290 39
2011-05-09 08:29:02 51°9.276 2°36.322 -999 333 14.5 102290 39
2011-05-09 08:29:08 51°9.276 2°36.303 -999 332 14.5 102290 39
2011-05-09 08:29:12 51°9.275 2°36.292 -999 331 14.5 102290 39
2011-05-09 08:29:18 51°9.276 2°36.275 -999 332 14.5 102290 39
2011-05-09 08:29:22 51°9.276 2°36.264 -999 282 14.5 102290 39
2011-05-09 08:29:28 51°9.276 2°36.249 -999 329 14.5 102290 39
2011-05-09 08:29:32 51°9.276 2°36.24 -999 328 14.5 102290 39
2011-05-09 08:29:38 51°9.277 2°36.226 -999 330 14.5 102290 39
2011-05-09 08:29:43 51°9.277 2°36.216 -999 282 14.6 102290 37
2011-05-09 08:29:48 51°9.277 2°36.206 -999 333 14.6 102290 37
2011-05-09 08:29:52 51°9.276 2°36.199 -999 281 14.6 102290 39
2011-05-09 08:29:57 51°9.276 2°36.191 -999 335 14.6 102290 39
2011-05-09 08:30:02 51°9.275 2°36.183 -999 338 14.6 102290 39
2011-05-09 08:30:08 51°9.273 2°36.175 -999 342 14.6 102290 39
2011-05-09 08:30:12 51°9.273 2°36.169 -999 341 14.6 102290 39
2011-05-09 08:30:18 51°9.271 2°36.162 -999 344 14.6 102290 39
2011-05-09 08:30:22 51°9.27 2°36.158 -999 344 14.6 102300 39
2011-05-09 08:30:28 51°9.269 2°36.152 -999 348 14.6 102300 39
2011-05-09 08:30:32 51°9.268 2°36.148 -999 348 14.6 102290 39
2011-05-09 08:30:38 51°9.267 2°36.143 -999 351 14.6 102290 39
2011-05-09 08:30:43 51°9.266 2°36.14 -999 352 14.6 102290 39
2011-05-09 08:30:48 51°9.266 2°36.137 -999 352 14.6 102290 39
2011-05-09 08:30:52 51°9.265 2°36.135 -999 356 14.6 102290 38
2011-05-09 08:30:58 51°9.265 2°36.132 -999 360 14.6 102290 38
2011-05-09 08:31:02 51°9.265 2°36.131 -999 1 14.6 102290 38
2011-05-09 08:31:08 51°9.265 2°36.129 -999 2 14.6 102290 38
2011-05-09 08:31:12 51°9.265 2°36.128 -999 3 14.6 102300 38
2011-05-09 08:31:18 51°9.265 2°36.126 -999 3 14.6 102300 38
2011-05-09 08:31:23 51°9.265 2°36.125 -999 3 14.6 102300 39
2011-05-09 08:31:28 51°9.266 2°36.123 -999 5 14.6 102300 39
2011-05-09 08:31:33 51°9.266 2°36.122 -999 6 14.5 102300 39
2011-05-09 08:31:39 51°9.266 2°36.12 -999 4 14.5 102300 39
2011-05-09 08:31:44 51°9.266 2°36.119 -999 7 14.5 102300 39
2011-05-09 08:31:48 51°9.267 2°36.117 -999 8 14.5 102300 39
2011-05-09 08:31:53 51°9.267 2°36.116 -999 9 14.4 102290 38
2011-05-09 08:31:59 51°9.267 2°36.114 -999 9 14.4 102290 38
2011-05-09 08:32:04 51°9.268 2°36.112 -999 9 14.4 102300 39
2011-05-09 08:32:08 51°9.268 2°36.11 -999 10 14.4 102300 39
2011-05-09 08:32:13 51°9.268 2°36.108 -999 9 14.4 102300 39
2011-05-09 08:32:18 51°9.268 2°36.107 -999 13 14.4 102300 39
2011-05-09 08:32:23 51°9.269 2°36.105 -999 11 14.3 102300 37
2011-05-09 08:32:28 51°9.269 2°36.103 -999 12 14.3 102300 37
2011-05-09 08:32:32 51°9.269 2°36.102 -999 9 14.3 102290 39
2011-05-09 08:32:37 51°9.269 2°36.1 -999 14 14.3 102290 39
2011-05-09 08:32:42 51°9.269 2°36.098 -999 11 14.3 102300 39
2011-05-09 08:32:48 51°9.27 2°36.096 -999 11 14.3 102300 39
2011-05-09 08:32:52 51°9.27 2°36.094 -999 11 14.3 102290 39
2011-05-09 08:32:58 51°9.27 2°36.092 -999 12 14.3 102290 39
2011-05-09 08:33:02 51°9.27 2°36.091 -999 12 14.3 102300 39
2011-05-09 08:33:08 51°9.27 2°36.088 -999 9 14.3 102300 39
2011-05-09 08:33:12 51°9.27 2°36.087 -999 10 14.3 102300 39
2011-05-09 08:33:18 51°9.27 2°36.085 -999 13 14.3 102300 39
2011-05-09 08:33:22 51°9.27 2°36.083 -999 10 14.2 102300 39
2011-05-09 08:33:28 51°9.27 2°36.081 -999 9 14.2 102300 39
2011-05-09 08:33:32 51°9.27 2°36.08 -999 9 14.2 102300 39
2011-05-09 08:33:38 51°9.27 2°36.077 -999 10 14.2 102300 39
2011-05-09 08:33:43 51°9.27 2°36.076 -999 11 14.2 102300 39
2011-05-09 08:33:48 51°9.27 2°36.074 -999 11 14.2 102300 39
2011-05-09 08:33:52 51°9.27 2°36.072 -999 11 14.2 102300 39
2011-05-09 08:33:58 51°9.27 2°36.07 -999 10 14.2 102300 39
2011-05-09 08:34:03 51°9.27 2°36.068 -999 7 14.2 102300 39
2011-05-09 08:34:08 51°9.27 2°36.066 -999 11 14.2 102300 39
2011-05-09 08:34:12 51°9.27 2°36.065 -999 10 14.2 102300 39
2011-05-09 08:34:18 51°9.27 2°36.062 -999 7 14.2 102300 39
2011-05-09 08:34:23 51°9.27 2°36.06 -999 8 14.1 102300 39
2011-05-09 08:34:28 51°9.27 2°36.058 -999 13 14.1 102300 39
2011-05-09 08:34:32 51°9.27 2°36.057 -999 11 14.1 102290 39
2011-05-09 08:34:37 51°9.27 2°36.055 -999 12 14.1 102290 39
2011-05-09 08:34:42 51°9.27 2°36.053 -999 12 14.1 102300 39
2011-05-09 08:34:48 51°9.27 2°36.05 -999 11 14.1 102300 39
2011-05-09 08:34:52 51°9.27 2°36.049 -999 10 14.2 102300 39
2011-05-09 08:34:58 51°9.269 2°36.047 -999 12 14.2 102300 39
2011-05-09 08:35:03 51°9.269 2°36.045 -999 12 14.1 102300 38
2011-05-09 08:35:08 51°9.269 2°36.043 -999 14 14.1 102300 38
2011-05-09 08:35:12 51°9.269 2°36.041 -999 14 14.1 102300 39
2011-05-09 08:35:18 51°9.269 2°36.039 -999 14 14.1 102300 39
2011-05-09 08:35:22 51°9.269 2°36.037 -999 16 14.1 102300 39
2011-05-09 08:35:28 51°9.269 2°36.034 -999 9 14.1 102300 39
2011-05-09 08:35:32 51°9.269 2°36.033 -999 9 14.1 102290 39
2011-05-09 08:35:38 51°9.269 2°36.03 -999 8 14.1 102290 39
2011-05-09 08:35:43 51°9.269 2°36.028 -999 11 14.1 102290 39
2011-05-09 08:35:48 51°9.269 2°36.026 -999 10 14.1 102290 39
2011-05-09 08:35:52 51°9.269 2°36.024 -999 11 14.1 102290 39
2011-05-09 08:35:58 51°9.269 2°36.022 -999 9 14.1 102290 39
2011-05-09 08:36:03 51°9.269 2°36.02 -999 11 14.1 102290 39
2011-05-09 08:36:08 51°9.269 2°36.017 -999 11 14.1 102290 39
2011-05-09 08:36:12 51°9.269 2°36.016 -999 16 14.2 102290 39
2011-05-09 08:36:18 51°9.269 2°36.013 -999 16 14.2 102290 39
2011-05-09 08:36:23 51°9.268 2°36.011 -999 14 14.1 102290 39
2011-05-09 08:36:28 51°9.268 2°36.009 -999 14 14.1 102290 39
2011-05-09 08:36:32 51°9.268 2°36.008 -999 15 14.2 102290 39
2011-05-09 08:36:37 51°9.268 2°36.006 -999 12 14.2 102290 39
2011-05-09 08:36:43 51°9.268 2°36.003 -999 13 14.2 102290 39
2011-05-09 08:36:48 51°9.268 2°36.001 -999 12 14.2 102290 39
2011-05-09 08:36:52 51°9.268 2°36 -999 11 14.2 102290 39
2011-05-09 08:36:58 51°9.267 2°35.997 -999 14 14.2 102290 39
2011-05-09 08:37:02 51°9.267 2°35.995 -999 15 14.2 102290 39
2011-05-09 08:37:08 51°9.267 2°35.993 -999 17 14.2 102290 39
2011-05-09 08:37:12 51°9.267 2°35.991 -999 16 14.2 102290 39
2011-05-09 08:37:18 51°9.267 2°35.988 -999 14 14.2 102290 39
2011-05-09 08:37:22 51°9.267 2°35.987 -999 14 14.2 102290 39
2011-05-09 08:37:28 51°9.267 2°35.984 -999 16 14.2 102290 39
2011-05-09 08:37:32 51°9.266 2°35.983 -999 17 14.2 102290 39
2011-05-09 08:37:38 51°9.266 2°35.98 -999 18 14.2 102290 39
2011-05-09 08:37:43 51°9.266 2°35.978 -999 17 14.2 102290 38
2011-05-09 08:37:48 51°9.266 2°35.975 -999 19 14.2 102290 38
2011-05-09 08:37:52 51°9.266 2°35.974 -999 18 14.2 102290 39
2011-05-09 08:37:58 51°9.266 2°35.971 -999 24 14.2 102290 39
2011-05-09 08:38:03 51°9.266 2°35.969 -999 25 14.2 102290 39
2011-05-09 08:38:08 51°9.266 2°35.966 -999 22 14.2 102290 39
2011-05-09 08:38:12 51°9.265 2°35.965 -999 22 14.2 102290 39
2011-05-09 08:38:18 51°9.265 2°35.962 -999 21 14.2 102290 39
2011-05-09 08:38:23 51°9.265 2°35.96 -999 18 14.2 102290 39
2011-05-09 08:38:28 51°9.264 2°35.958 -999 16 14.2 102290 39
2011-05-09 08:38:32 51°9.264 2°35.956 -999 16 14.2 102290 39
2011-05-09 08:38:38 51°9.264 2°35.954 -999 21 14.2 102290 39
2011-05-09 08:38:43 51°9.264 2°35.952 -999 26 14.2 102290 39
2011-05-09 08:38:48 51°9.264 2°35.949 -999 23 14.2 102290 39
2011-05-09 08:38:52 51°9.263 2°35.948 -999 26 14.2 102290 39
2011-05-09 08:38:57 51°9.263 2°35.945 -999 27 14.2 102290 39
2011-05-09 08:39:03 51°9.263 2°35.943 -999 26 14.2 102290 39
2011-05-09 08:39:08 51°9.262 2°35.94 -999 26 14.2 102290 39
2011-05-09 08:39:12 51°9.262 2°35.939 -999 26 14.2 102290 39
2011-05-09 08:39:18 51°9.262 2°35.936 -999 24 14.2 102290 39
2011-05-09 08:39:22 51°9.262 2°35.935 -999 25 14.3 102290 39
2011-05-09 08:39:28 51°9.261 2°35.932 -999 28 14.3 102290 39
2011-05-09 08:39:32 51°9.261 2°35.93 -999 28 14.3 102290 39